owner,sensor,date,latitude,longitude,vertical_datum,wind_speed,wind_to_direction,wind_speed_of_gust,qcFlag 
TCOON,ioos:station:TCOON:057:1,2009-03-01T00:00:00Z,28.4460,-96.3961,0.0,14.3,344.0,16.4,'11111222,11111222,11111222' 
TCOON,ioos:station:TCOON:057:1,2009-03-01T01:00:00Z,28.4460,-96.3961,0.0,13.2,347.0,15.5,'11111222,11111222,11111222' 
TCOON,ioos:station:TCOON:057:1,2009-03-01T03:00:00Z,28.4460,-96.3961,0.0,13.2,357.0,15.7,'11111222,11111222,11111222' 
TCOON,ioos:station:TCOON:057:1,2009-03-01T04:00:00Z,28.4460,-96.3961,0.0,13.7,7.0,16.0,'11111222,11111222,11111222' 
TCOON,ioos:station:TCOON:057:1,2009-03-01T05:00:00Z,28.4460,-96.3961,0.0,14.7,360.0,16.5,'11111222,11144222,11111222' 
TCOON,ioos:station:TCOON:057:1,2009-03-01T06:00:00Z,28.4460,-96.3961,0.0,13.5,360.0,16.7,'11111222,11144222,11111222' 
TCOON,ioos:station:TCOON:057:1,2009-03-01T07:00:00Z,28.4460,-96.3961,0.0,13.1,356.0,16.2,'11111222,11111222,11111222' 
TCOON,ioos:station:TCOON:057:1,2009-03-01T08:00:00Z,28.4460,-96.3961,0.0,16.1,356.0,18.5,'11111222,11111222,11111222' 
TCOON,ioos:station:TCOON:057:1,2009-03-01T09:00:00Z,28.4460,-96.3961,0.0,14.6,350.0,16.8,'11111222,11111222,11111222' 
TCOON,ioos:station:TCOON:057:1,2009-03-01T10:00:00Z,28.4460,-96.3961,0.0,14.7,348.0,17.7,'11111222,11111222,11111222' 
TCOON,ioos:station:TCOON:057:1,2009-03-01T11:00:00Z,28.4460,-96.3961,0.0,12.9,346.0,15.9,'11111222,11111222,11111222' 
TCOON,ioos:station:TCOON:057:1,2009-03-01T12:00:00Z,28.4460,-96.3961,0.0,14.4,351.0,17.9,'11111222,11111222,11111222' 
TCOON,ioos:station:TCOON:057:1,2009-03-01T13:00:00Z,28.4460,-96.3961,0.0,13.5,353.0,16.0,'11111222,11111222,11111222' 
TCOON,ioos:station:TCOON:057:1,2009-03-01T14:00:00Z,28.4460,-96.3961,0.0,13.3,354.0,15.1,'11111222,11111222,11111222' 
TCOON,ioos:station:TCOON:057:1,2009-03-01T15:00:00Z,28.4460,-96.3961,0.0,11.9,347.0,14.1,'11111222,11111222,11111222' 
TCOON,ioos:station:TCOON:057:1,2009-03-01T16:00:00Z,28.4460,-96.3961,0.0,11.0,357.0,12.7,'11111222,11111222,11111222' 
TCOON,ioos:station:TCOON:057:1,2009-03-01T17:00:00Z,28.4460,-96.3961,0.0,10.1,358.0,12.1,'11111222,11111222,11111222' 
TCOON,ioos:station:TCOON:057:1,2009-03-01T18:00:00Z,28.4460,-96.3961,0.0,9.8,2.0,11.5,'11111222,11111222,11111222' 
TCOON,ioos:station:TCOON:057:1,2009-03-01T19:00:00Z,28.4460,-96.3961,0.0,7.5,346.0,8.9,'11111222,11111222,11111222' 
TCOON,ioos:station:TCOON:057:1,2009-03-01T20:00:00Z,28.4460,-96.3961,0.0,7.1,354.0,8.3,'11111222,11111222,11111222' 
TCOON,ioos:station:TCOON:057:1,2009-03-01T21:00:00Z,28.4460,-96.3961,0.0,5.2,354.0,5.9,'11111222,11111222,11111222' 
TCOON,ioos:station:TCOON:057:1,2009-03-01T22:00:00Z,28.4460,-96.3961,0.0,6.7,2.0,7.8,'11111222,11111222,11111222' 
TCOON,ioos:station:TCOON:057:1,2009-03-01T23:00:00Z,28.4460,-96.3961,0.0,5.9,1.0,7.1,'11111222,11111222,11111222' 
TCOON,ioos:station:TCOON:057:1,2009-03-02T00:00:00Z,28.4460,-96.3961,0.0,6.1,3.0,6.9,'11111222,11111222,11111222' 
TCOON,ioos:station:TCOON:057:1,2009-03-02T01:00:00Z,28.4460,-96.3961,0.0,5.3,9.0,5.7,'11111222,11111222,11111222' 
TCOON,ioos:station:TCOON:057:1,2009-03-02T02:00:00Z,28.4460,-96.3961,0.0,6.0,6.0,6.7,'11111222,11111222,11111222' 
TCOON,ioos:station:TCOON:057:1,2009-03-02T03:00:00Z,28.4460,-96.3961,0.0,7.0,14.0,7.8,'11111222,11111222,11111222' 
TCOON,ioos:station:TCOON:057:1,2009-03-02T04:00:00Z,28.4460,-96.3961,0.0,7.9,19.0,8.7,'11111222,11111222,11111222' 
TCOON,ioos:station:TCOON:057:1,2009-03-02T05:00:00Z,28.4460,-96.3961,0.0,8.1,27.0,8.7,'11111222,11111222,11111222' 
TCOON,ioos:station:TCOON:057:1,2009-03-02T06:00:00Z,28.4460,-96.3961,0.0,6.2,34.0,7.5,'11111222,11111222,11111222' 
TCOON,ioos:station:TCOON:057:1,2009-03-02T07:00:00Z,28.4460,-96.3961,0.0,6.6,31.0,7.4,'11111222,11111222,11111222' 
TCOON,ioos:station:TCOON:057:1,2009-03-02T08:00:00Z,28.4460,-96.3961,0.0,6.2,38.0,6.8,'11111222,11111222,11111222' 
TCOON,ioos:station:TCOON:057:1,2009-03-02T09:00:00Z,28.4460,-96.3961,0.0,6.7,42.0,7.3,'11111222,11111222,11111222' 
TCOON,ioos:station:TCOON:057:1,2009-03-02T10:00:00Z,28.4460,-96.3961,0.0,5.0,51.0,5.6,'11111222,11111222,11111222' 
TCOON,ioos:station:TCOON:057:1,2009-03-02T11:00:00Z,28.4460,-96.3961,0.0,6.3,50.0,7.1,'11111222,11111222,11111222' 
TCOON,ioos:station:TCOON:057:1,2009-03-02T12:00:00Z,28.4460,-96.3961,0.0,5.5,57.0,6.2,'11111222,11111222,11111222' 
TCOON,ioos:station:TCOON:057:1,2009-03-02T13:00:00Z,28.4460,-96.3961,0.0,5.1,70.0,5.5,'11111222,11111222,11111222' 
TCOON,ioos:station:TCOON:057:1,2009-03-02T14:00:00Z,28.4460,-96.3961,0.0,4.4,62.0,4.9,'11111222,11111222,11111222' 
TCOON,ioos:station:TCOON:057:1,2009-03-02T15:00:00Z,28.4460,-96.3961,0.0,4.8,40.0,5.3,'11111222,11111222,11111222' 
TCOON,ioos:station:TCOON:057:1,2009-03-02T16:00:00Z,28.4460,-96.3961,0.0,4.5,58.0,5.3,'11111222,11111222,11111222' 
TCOON,ioos:station:TCOON:057:1,2009-03-02T17:00:00Z,28.4460,-96.3961,0.0,4.1,50.0,4.5,'11111222,11111222,11111222' 
TCOON,ioos:station:TCOON:057:1,2009-03-02T18:00:00Z,28.4460,-96.3961,0.0,3.7,61.0,4.5,'11111222,11111222,11111222' 
TCOON,ioos:station:TCOON:057:1,2009-03-02T19:00:00Z,28.4460,-96.3961,0.0,3.7,72.0,3.9,'11111222,11111222,11111222' 
TCOON,ioos:station:TCOON:057:1,2009-03-02T20:00:00Z,28.4460,-96.3961,0.0,3.5,125.0,4.0,'11111222,11111222,11111222' 
TCOON,ioos:station:TCOON:057:1,2009-03-02T21:00:00Z,28.4460,-96.3961,0.0,4.2,143.0,4.9,'11111222,11111222,11111222' 
TCOON,ioos:station:TCOON:057:1,2009-03-02T22:00:00Z,28.4460,-96.3961,0.0,4.3,157.0,4.8,'11111222,11111222,11111222' 
TCOON,ioos:station:TCOON:057:1,2009-03-02T23:00:00Z,28.4460,-96.3961,0.0,5.5,163.0,6.0,'11111222,11111222,11111222' 
TCOON,ioos:station:TCOON:057:1,2009-03-03T00:00:00Z,28.4460,-96.3961,0.0,5.6,181.0,6.5,'11111222,11111222,11111222' 
TCOON,ioos:station:TCOON:057:1,2009-03-03T01:00:00Z,28.4460,-96.3961,0.0,5.5,178.0,6.0,'11111222,11111222,11111222' 
TCOON,ioos:station:TCOON:057:1,2009-03-03T02:00:00Z,28.4460,-96.3961,0.0,5.5,164.0,6.4,'11111222,11111222,11111222' 
TCOON,ioos:station:TCOON:057:1,2009-03-03T03:00:00Z,28.4460,-96.3961,0.0,6.1,164.0,7.0,'11111222,11111222,11111222' 
TCOON,ioos:station:TCOON:057:1,2009-03-03T04:00:00Z,28.4460,-96.3961,0.0,6.3,162.0,7.1,'11111222,11111222,11111222' 
TCOON,ioos:station:TCOON:057:1,2009-03-03T05:00:00Z,28.4460,-96.3961,0.0,6.5,153.0,7.4,'11111222,11111222,11111222' 
TCOON,ioos:station:TCOON:057:1,2009-03-03T06:00:00Z,28.4460,-96.3961,0.0,5.7,143.0,6.5,'11111222,11111222,11111222' 
TCOON,ioos:station:TCOON:057:1,2009-03-03T07:00:00Z,28.4460,-96.3961,0.0,5.7,147.0,6.3,'11111222,11111222,11111222' 
TCOON,ioos:station:TCOON:057:1,2009-03-03T08:00:00Z,28.4460,-96.3961,0.0,6.2,142.0,7.0,'11111222,11111222,11111222' 
TCOON,ioos:station:TCOON:057:1,2009-03-03T09:00:00Z,28.4460,-96.3961,0.0,4.5,122.0,5.3,'11111222,11111222,11111222' 
TCOON,ioos:station:TCOON:057:1,2009-03-03T10:00:00Z,28.4460,-96.3961,0.0,4.2,117.0,4.9,'11111222,11111222,11111222' 
TCOON,ioos:station:TCOON:057:1,2009-03-03T11:00:00Z,28.4460,-96.3961,0.0,4.9,102.0,5.8,'11111222,11111222,11111222' 
TCOON,ioos:station:TCOON:057:1,2009-03-03T12:00:00Z,28.4460,-96.3961,0.0,6.3,97.0,7.0,'11111222,11111222,11111222' 
TCOON,ioos:station:TCOON:057:1,2009-03-03T13:00:00Z,28.4460,-96.3961,0.0,7.3,102.0,8.5,'11111222,11111222,11111222' 
TCOON,ioos:station:TCOON:057:1,2009-03-03T14:00:00Z,28.4460,-96.3961,0.0,7.5,100.0,8.9,'11111222,11111222,11111222' 
TCOON,ioos:station:TCOON:057:1,2009-03-03T15:00:00Z,28.4460,-96.3961,0.0,8.2,94.0,9.2,'11111222,11111222,11111222' 
TCOON,ioos:station:TCOON:057:1,2009-03-03T16:00:00Z,28.4460,-96.3961,0.0,9.0,93.0,9.7,'11111222,11111222,11111222' 
TCOON,ioos:station:TCOON:057:1,2009-03-03T17:00:00Z,28.4460,-96.3961,0.0,8.5,97.0,9.7,'11111222,11111222,11111222' 
TCOON,ioos:station:TCOON:057:1,2009-03-03T18:00:00Z,28.4460,-96.3961,0.0,8.8,99.0,10.2,'11111222,11111222,11111222' 
TCOON,ioos:station:TCOON:057:1,2009-03-03T19:00:00Z,28.4460,-96.3961,0.0,8.8,105.0,10.4,'11111222,11111222,11111222' 
TCOON,ioos:station:TCOON:057:1,2009-03-03T20:00:00Z,28.4460,-96.3961,0.0,8.9,101.0,10.4,'11111222,11111222,11111222' 
TCOON,ioos:station:TCOON:057:1,2009-03-03T21:00:00Z,28.4460,-96.3961,0.0,7.5,102.0,8.8,'11111222,11111222,11111222' 
TCOON,ioos:station:TCOON:057:1,2009-03-03T22:00:00Z,28.4460,-96.3961,0.0,7.4,104.0,8.8,'11111222,11111222,11111222' 
TCOON,ioos:station:TCOON:057:1,2009-03-03T23:00:00Z,28.4460,-96.3961,0.0,8.2,110.0,9.4,'11111222,11111222,11111222' 
TCOON,ioos:station:TCOON:057:1,2009-03-04T00:00:00Z,28.4460,-96.3961,0.0,7.1,109.0,7.8,'11111222,11111222,11111222' 
TCOON,ioos:station:TCOON:057:1,2009-03-04T01:00:00Z,28.4460,-96.3961,0.0,7.1,111.0,8.1,'11111222,11111222,11111222' 
TCOON,ioos:station:TCOON:057:1,2009-03-04T02:00:00Z,28.4460,-96.3961,0.0,6.3,115.0,7.1,'11111222,11111222,11111222' 
TCOON,ioos:station:TCOON:057:1,2009-03-04T03:00:00Z,28.4460,-96.3961,0.0,5.9,112.0,6.5,'11111222,11111222,11111222' 
TCOON,ioos:station:TCOON:057:1,2009-03-04T04:00:00Z,28.4460,-96.3961,0.0,6.7,136.0,7.5,'11111222,11111222,11111222' 
TCOON,ioos:station:TCOON:057:1,2009-03-04T05:00:00Z,28.4460,-96.3961,0.0,6.3,139.0,7.3,'11111222,11111222,11111222' 
TCOON,ioos:station:TCOON:057:1,2009-03-04T06:00:00Z,28.4460,-96.3961,0.0,4.9,143.0,5.5,'11111222,11111222,11111222' 
TCOON,ioos:station:TCOON:057:1,2009-03-04T07:00:00Z,28.4460,-96.3961,0.0,4.7,157.0,5.2,'11111222,11111222,11111222' 
TCOON,ioos:station:TCOON:057:1,2009-03-04T08:00:00Z,28.4460,-96.3961,0.0,5.6,163.0,6.4,'11111222,11111222,11111222' 
TCOON,ioos:station:TCOON:057:1,2009-03-04T09:00:00Z,28.4460,-96.3961,0.0,5.9,158.0,6.8,'11111222,11111222,11111222' 
TCOON,ioos:station:TCOON:057:1,2009-03-04T10:00:00Z,28.4460,-96.3961,0.0,5.1,170.0,5.9,'11111222,11111222,11111222' 
TCOON,ioos:station:TCOON:057:1,2009-03-04T11:00:00Z,28.4460,-96.3961,0.0,4.0,162.0,4.3,'11111222,11111222,11111222' 
TCOON,ioos:station:TCOON:057:1,2009-03-04T12:00:00Z,28.4460,-96.3961,0.0,3.6,166.0,3.9,'11111222,11111222,11111222' 
TCOON,ioos:station:TCOON:057:1,2009-03-04T13:00:00Z,28.4460,-96.3961,0.0,3.6,155.0,4.3,'11111222,11111222,11111222' 
TCOON,ioos:station:TCOON:057:1,2009-03-04T14:00:00Z,28.4460,-96.3961,0.0,5.4,154.0,5.9,'11111222,11111222,11111222' 
TCOON,ioos:station:TCOON:057:1,2009-03-04T15:00:00Z,28.4460,-96.3961,0.0,5.1,155.0,5.9,'11111222,11111222,11111222' 
TCOON,ioos:station:TCOON:057:1,2009-03-04T16:00:00Z,28.4460,-96.3961,0.0,5.3,147.0,5.9,'11111222,11111222,11111222' 
TCOON,ioos:station:TCOON:057:1,2009-03-04T17:00:00Z,28.4460,-96.3961,0.0,4.0,161.0,4.8,'11111222,11111222,11111222' 
TCOON,ioos:station:TCOON:057:1,2009-03-04T18:00:00Z,28.4460,-96.3961,0.0,6.5,157.0,7.7,'11111222,11111222,11111222' 
TCOON,ioos:station:TCOON:057:1,2009-03-04T19:00:00Z,28.4460,-96.3961,0.0,5.8,164.0,6.7,'11111222,11111222,11111222' 
TCOON,ioos:station:TCOON:057:1,2009-03-04T20:00:00Z,28.4460,-96.3961,0.0,5.1,153.0,5.9,'11111222,11111222,11111222' 
TCOON,ioos:station:TCOON:057:1,2009-03-04T21:00:00Z,28.4460,-96.3961,0.0,5.2,148.0,6.1,'11111222,11111222,11111222' 
TCOON,ioos:station:TCOON:057:1,2009-03-04T22:00:00Z,28.4460,-96.3961,0.0,5.3,141.0,6.1,'11111222,11111222,11111222' 
TCOON,ioos:station:TCOON:057:1,2009-03-04T23:00:00Z,28.4460,-96.3961,0.0,5.8,129.0,6.8,'11111222,11111222,11111222' 
TCOON,ioos:station:TCOON:057:1,2009-03-05T00:00:00Z,28.4460,-96.3961,0.0,5.9,134.0,6.6,'11111222,11111222,11111222' 
TCOON,ioos:station:TCOON:057:1,2009-03-05T01:00:00Z,28.4460,-96.3961,0.0,5.4,130.0,6.0,'11111222,11111222,11111222' 
TCOON,ioos:station:TCOON:057:1,2009-03-05T02:00:00Z,28.4460,-96.3961,0.0,5.7,135.0,6.6,'11111222,11111222,11111222' 
TCOON,ioos:station:TCOON:057:1,2009-03-05T03:00:00Z,28.4460,-96.3961,0.0,5.7,133.0,6.5,'11111222,11111222,11111222' 
TCOON,ioos:station:TCOON:057:1,2009-03-05T04:00:00Z,28.4460,-96.3961,0.0,6.5,141.0,7.3,'11111222,11111222,11111222' 
TCOON,ioos:station:TCOON:057:1,2009-03-05T05:00:00Z,28.4460,-96.3961,0.0,6.2,150.0,7.2,'11111222,11111222,11111222' 
TCOON,ioos:station:TCOON:057:1,2009-03-05T06:00:00Z,28.4460,-96.3961,0.0,6.8,161.0,7.7,'11111222,11111222,11111222' 
TCOON,ioos:station:TCOON:057:1,2009-03-05T07:00:00Z,28.4460,-96.3961,0.0,7.6,158.0,8.8,'11111222,11111222,11111222' 
TCOON,ioos:station:TCOON:057:1,2009-03-05T08:00:00Z,28.4460,-96.3961,0.0,7.0,161.0,8.1,'11111222,11111222,11111222' 
TCOON,ioos:station:TCOON:057:1,2009-03-05T09:00:00Z,28.4460,-96.3961,0.0,5.5,170.0,6.7,'11111222,11111222,11111222' 
TCOON,ioos:station:TCOON:057:1,2009-03-05T10:00:00Z,28.4460,-96.3961,0.0,3.4,163.0,3.9,'11111222,11111222,11111222' 
TCOON,ioos:station:TCOON:057:1,2009-03-05T11:00:00Z,28.4460,-96.3961,0.0,2.3,165.0,2.5,'11111222,11111222,11111222' 
TCOON,ioos:station:TCOON:057:1,2009-03-05T12:00:00Z,28.4460,-96.3961,0.0,6.0,185.0,6.9,'11111222,11111222,11111222' 
TCOON,ioos:station:TCOON:057:1,2009-03-05T13:00:00Z,28.4460,-96.3961,0.0,4.6,170.0,5.2,'11111222,11111222,11111222' 
TCOON,ioos:station:TCOON:057:1,2009-03-05T14:00:00Z,28.4460,-96.3961,0.0,3.8,157.0,4.2,'11111222,11111222,11111222' 
TCOON,ioos:station:TCOON:057:1,2009-03-05T15:00:00Z,28.4460,-96.3961,0.0,3.9,173.0,4.3,'11111222,11111222,11111222' 
TCOON,ioos:station:TCOON:057:1,2009-03-05T16:00:00Z,28.4460,-96.3961,0.0,6.4,178.0,7.2,'11111222,11111222,11111222' 
TCOON,ioos:station:TCOON:057:1,2009-03-05T17:00:00Z,28.4460,-96.3961,0.0,4.5,171.0,5.3,'11111222,11111222,11111222' 
TCOON,ioos:station:TCOON:057:1,2009-03-05T18:00:00Z,28.4460,-96.3961,0.0,5.4,164.0,5.9,'11111222,11111222,11111222' 
TCOON,ioos:station:TCOON:057:1,2009-03-05T19:00:00Z,28.4460,-96.3961,0.0,4.9,162.0,5.4,'11111222,11111222,11111222' 
TCOON,ioos:station:TCOON:057:1,2009-03-05T20:00:00Z,28.4460,-96.3961,0.0,4.9,161.0,5.6,'11111222,11111222,11111222' 
TCOON,ioos:station:TCOON:057:1,2009-03-05T21:00:00Z,28.4460,-96.3961,0.0,3.7,128.0,4.2,'11111222,11111222,11111222' 
TCOON,ioos:station:TCOON:057:1,2009-03-05T22:00:00Z,28.4460,-96.3961,0.0,4.8,129.0,5.5,'11111222,11111222,11111222' 
TCOON,ioos:station:TCOON:057:1,2009-03-05T23:00:00Z,28.4460,-96.3961,0.0,5.5,133.0,6.3,'11111222,11111222,11111222' 
TCOON,ioos:station:TCOON:057:1,2009-03-06T00:00:00Z,28.4460,-96.3961,0.0,5.7,127.0,6.5,'11111222,11111222,11111222' 
TCOON,ioos:station:TCOON:057:1,2009-03-06T01:00:00Z,28.4460,-96.3961,0.0,4.1,127.0,4.7,'11111222,11111222,11111222' 
TCOON,ioos:station:TCOON:057:1,2009-03-06T02:00:00Z,28.4460,-96.3961,0.0,4.5,128.0,5.6,'11111222,11111222,11111222' 
TCOON,ioos:station:TCOON:057:1,2009-03-06T03:00:00Z,28.4460,-96.3961,0.0,5.6,136.0,6.4,'11111222,11111222,11111222' 
TCOON,ioos:station:TCOON:057:1,2009-03-06T04:00:00Z,28.4460,-96.3961,0.0,5.6,134.0,6.1,'11111222,11111222,11111222' 
TCOON,ioos:station:TCOON:057:1,2009-03-06T05:00:00Z,28.4460,-96.3961,0.0,5.9,138.0,6.6,'11111222,11111222,11111222' 
TCOON,ioos:station:TCOON:057:1,2009-03-06T06:00:00Z,28.4460,-96.3961,0.0,6.4,141.0,7.3,'11111222,11111222,11111222' 
TCOON,ioos:station:TCOON:057:1,2009-03-06T07:00:00Z,28.4460,-96.3961,0.0,4.0,140.0,4.6,'11111222,11111222,11111222' 
TCOON,ioos:station:TCOON:057:1,2009-03-06T08:00:00Z,28.4460,-96.3961,0.0,3.0,123.0,3.4,'11111222,11111222,11111222' 
TCOON,ioos:station:TCOON:057:1,2009-03-06T09:00:00Z,28.4460,-96.3961,0.0,2.8,128.0,3.4,'11111222,11111222,11111222' 
TCOON,ioos:station:TCOON:057:1,2009-03-06T10:00:00Z,28.4460,-96.3961,0.0,3.1,142.0,3.8,'11111222,11111222,11111222' 
TCOON,ioos:station:TCOON:057:1,2009-03-06T11:00:00Z,28.4460,-96.3961,0.0,4.1,144.0,4.8,'11111222,11111222,11111222' 
TCOON,ioos:station:TCOON:057:1,2009-03-06T12:00:00Z,28.4460,-96.3961,0.0,3.5,139.0,3.8,'11111222,11111222,11111222' 
TCOON,ioos:station:TCOON:057:1,2009-03-06T13:00:00Z,28.4460,-96.3961,0.0,4.8,139.0,5.6,'11111222,11111222,11111222' 
TCOON,ioos:station:TCOON:057:1,2009-03-06T14:00:00Z,28.4460,-96.3961,0.0,5.3,150.0,6.0,'11111222,11111222,11111222' 
TCOON,ioos:station:TCOON:057:1,2009-03-06T15:00:00Z,28.4460,-96.3961,0.0,5.7,167.0,6.4,'11111222,11111222,11111222' 
TCOON,ioos:station:TCOON:057:1,2009-03-06T16:00:00Z,28.4460,-96.3961,0.0,5.8,161.0,6.8,'11111222,11111222,11111222' 
TCOON,ioos:station:TCOON:057:1,2009-03-06T17:00:00Z,28.4460,-96.3961,0.0,5.7,158.0,6.8,'11111222,11111222,11111222' 
TCOON,ioos:station:TCOON:057:1,2009-03-06T18:00:00Z,28.4460,-96.3961,0.0,5.9,160.0,7.0,'11111222,11111222,11111222' 
TCOON,ioos:station:TCOON:057:1,2009-03-06T19:00:00Z,28.4460,-96.3961,0.0,5.0,157.0,5.8,'11111222,11111222,11111222' 
TCOON,ioos:station:TCOON:057:1,2009-03-06T20:00:00Z,28.4460,-96.3961,0.0,4.5,147.0,5.0,'11111222,11111222,11111222' 
TCOON,ioos:station:TCOON:057:1,2009-03-06T21:00:00Z,28.4460,-96.3961,0.0,4.6,143.0,5.2,'11111222,11111222,11111222' 
TCOON,ioos:station:TCOON:057:1,2009-03-06T22:00:00Z,28.4460,-96.3961,0.0,5.5,124.0,6.1,'11111222,11111222,11111222' 
TCOON,ioos:station:TCOON:057:1,2009-03-06T23:00:00Z,28.4460,-96.3961,0.0,5.6,121.0,6.2,'11111222,11111222,11111222' 
TCOON,ioos:station:TCOON:057:1,2009-03-07T00:00:00Z,28.4460,-96.3961,0.0,6.7,121.0,7.9,'11111222,11111222,11111222' 
TCOON,ioos:station:TCOON:057:1,2009-03-07T01:00:00Z,28.4460,-96.3961,0.0,6.1,119.0,7.2,'11111222,11111222,11111222' 
TCOON,ioos:station:TCOON:057:1,2009-03-07T02:00:00Z,28.4460,-96.3961,0.0,6.1,128.0,7.1,'11111222,11111222,11111222' 
TCOON,ioos:station:TCOON:057:1,2009-03-07T03:00:00Z,28.4460,-96.3961,0.0,6.2,133.0,6.9,'11111222,11111222,11111222' 
TCOON,ioos:station:TCOON:057:1,2009-03-07T04:00:00Z,28.4460,-96.3961,0.0,7.2,135.0,8.3,'11111222,11111222,11111222' 
TCOON,ioos:station:TCOON:057:1,2009-03-07T05:00:00Z,28.4460,-96.3961,0.0,6.5,136.0,7.3,'11111222,11111222,11111222' 
TCOON,ioos:station:TCOON:057:1,2009-03-07T06:00:00Z,28.4460,-96.3961,0.0,6.4,137.0,7.3,'11111222,11111222,11111222' 
TCOON,ioos:station:TCOON:057:1,2009-03-07T07:00:00Z,28.4460,-96.3961,0.0,7.8,144.0,9.0,'11111222,11111222,11111222' 
TCOON,ioos:station:TCOON:057:1,2009-03-07T08:00:00Z,28.4460,-96.3961,0.0,6.9,144.0,8.1,'11111222,11111222,11111222' 
TCOON,ioos:station:TCOON:057:1,2009-03-07T09:00:00Z,28.4460,-96.3961,0.0,6.6,138.0,7.9,'11111222,11111222,11111222' 
TCOON,ioos:station:TCOON:057:1,2009-03-07T10:00:00Z,28.4460,-96.3961,0.0,7.3,140.0,8.3,'11111222,11111222,11111222' 
TCOON,ioos:station:TCOON:057:1,2009-03-07T11:00:00Z,28.4460,-96.3961,0.0,5.0,142.0,6.1,'11111222,11111222,11111222' 
TCOON,ioos:station:TCOON:057:1,2009-03-07T12:00:00Z,28.4460,-96.3961,0.0,4.6,139.0,5.2,'11111222,11111222,11111222' 
TCOON,ioos:station:TCOON:057:1,2009-03-07T13:00:00Z,28.4460,-96.3961,0.0,4.3,139.0,4.8,'11111222,11111222,11111222' 
TCOON,ioos:station:TCOON:057:1,2009-03-07T14:00:00Z,28.4460,-96.3961,0.0,4.9,135.0,5.9,'11111222,11111222,11111222' 
TCOON,ioos:station:TCOON:057:1,2009-03-07T15:00:00Z,28.4460,-96.3961,0.0,6.4,137.0,7.3,'11111222,11111222,11111222' 
TCOON,ioos:station:TCOON:057:1,2009-03-07T16:00:00Z,28.4460,-96.3961,0.0,6.8,145.0,7.8,'11111222,11111222,11111222' 
TCOON,ioos:station:TCOON:057:1,2009-03-07T17:00:00Z,28.4460,-96.3961,0.0,7.4,143.0,8.4,'11111222,11111222,11111222' 
TCOON,ioos:station:TCOON:057:1,2009-03-07T18:00:00Z,28.4460,-96.3961,0.0,6.9,147.0,8.0,'11111222,11111222,11111222' 
TCOON,ioos:station:TCOON:057:1,2009-03-07T19:00:00Z,28.4460,-96.3961,0.0,6.6,146.0,7.4,'11111222,11111222,11111222' 
TCOON,ioos:station:TCOON:057:1,2009-03-07T20:00:00Z,28.4460,-96.3961,0.0,6.7,143.0,7.7,'11111222,11111222,11111222' 
TCOON,ioos:station:TCOON:057:1,2009-03-07T21:00:00Z,28.4460,-96.3961,0.0,5.9,132.0,6.7,'11111222,11111222,11111222' 
TCOON,ioos:station:TCOON:057:1,2009-03-07T22:00:00Z,28.4460,-96.3961,0.0,5.1,128.0,6.2,'11111222,11111222,11111222' 
TCOON,ioos:station:TCOON:057:1,2009-03-07T23:00:00Z,28.4460,-96.3961,0.0,6.2,121.0,6.8,'11111222,11111222,11111222' 
TCOON,ioos:station:TCOON:057:1,2009-03-08T00:00:00Z,28.4460,-96.3961,0.0,5.9,120.0,6.5,'11111222,11111222,11111222' 
TCOON,ioos:station:TCOON:057:1,2009-03-08T01:00:00Z,28.4460,-96.3961,0.0,5.7,122.0,6.3,'11111222,11111222,11111222' 
TCOON,ioos:station:TCOON:057:1,2009-03-08T02:00:00Z,28.4460,-96.3961,0.0,5.7,129.0,6.3,'11111222,11111222,11111222' 
TCOON,ioos:station:TCOON:057:1,2009-03-08T03:00:00Z,28.4460,-96.3961,0.0,5.9,133.0,6.8,'11111222,11111222,11111222' 
TCOON,ioos:station:TCOON:057:1,2009-03-08T04:00:00Z,28.4460,-96.3961,0.0,6.9,138.0,8.2,'11111222,11111222,11111222' 
TCOON,ioos:station:TCOON:057:1,2009-03-08T05:00:00Z,28.4460,-96.3961,0.0,7.7,143.0,8.7,'11111222,11111222,11111222' 
TCOON,ioos:station:TCOON:057:1,2009-03-08T06:00:00Z,28.4460,-96.3961,0.0,7.3,156.0,8.6,'11111222,11111222,11111222' 
TCOON,ioos:station:TCOON:057:1,2009-03-08T07:00:00Z,28.4460,-96.3961,0.0,8.1,151.0,9.2,'11111222,11111222,11111222' 
TCOON,ioos:station:TCOON:057:1,2009-03-08T08:00:00Z,28.4460,-96.3961,0.0,7.5,151.0,8.4,'11111222,11111222,11111222' 
TCOON,ioos:station:TCOON:057:1,2009-03-08T09:00:00Z,28.4460,-96.3961,0.0,6.2,153.0,7.1,'11111222,11111222,11111222' 
TCOON,ioos:station:TCOON:057:1,2009-03-08T10:00:00Z,28.4460,-96.3961,0.0,5.8,153.0,6.4,'11111222,11111222,11111222' 
TCOON,ioos:station:TCOON:057:1,2009-03-08T11:00:00Z,28.4460,-96.3961,0.0,3.8,155.0,4.2,'11111222,11111222,11111222' 
TCOON,ioos:station:TCOON:057:1,2009-03-08T12:00:00Z,28.4460,-96.3961,0.0,2.0,150.0,2.3,'11111222,11111222,11111222' 
TCOON,ioos:station:TCOON:057:1,2009-03-08T13:00:00Z,28.4460,-96.3961,0.0,1.6,28.0,1.8,'11111222,11111222,11111222' 
TCOON,ioos:station:TCOON:057:1,2009-03-08T14:00:00Z,28.4460,-96.3961,0.0,1.5,74.0,1.7,'11111222,11111222,11111222' 
TCOON,ioos:station:TCOON:057:1,2009-03-08T15:00:00Z,28.4460,-96.3961,0.0,2.7,137.0,3.3,'11111222,11111222,11111222' 
TCOON,ioos:station:TCOON:057:1,2009-03-08T16:00:00Z,28.4460,-96.3961,0.0,4.7,149.0,5.2,'11111222,11111222,11111222' 
TCOON,ioos:station:TCOON:057:1,2009-03-08T17:00:00Z,28.4460,-96.3961,0.0,6.4,146.0,7.0,'11111222,11111222,11111222' 
TCOON,ioos:station:TCOON:057:1,2009-03-08T18:00:00Z,28.4460,-96.3961,0.0,5.1,156.0,5.8,'11111222,11111222,11111222' 
TCOON,ioos:station:TCOON:057:1,2009-03-08T19:00:00Z,28.4460,-96.3961,0.0,2.9,149.0,3.5,'11111222,11111222,11111222' 
TCOON,ioos:station:TCOON:057:1,2009-03-08T20:00:00Z,28.4460,-96.3961,0.0,4.0,152.0,5.1,'11111222,11111222,11111222' 
TCOON,ioos:station:TCOON:057:1,2009-03-08T21:00:00Z,28.4460,-96.3961,0.0,3.4,150.0,3.7,'11111222,11111222,11111222' 
TCOON,ioos:station:TCOON:057:1,2009-03-08T22:00:00Z,28.4460,-96.3961,0.0,3.4,110.0,3.9,'11111222,11111222,11111222' 
TCOON,ioos:station:TCOON:057:1,2009-03-08T23:00:00Z,28.4460,-96.3961,0.0,2.8,75.0,3.4,'11111222,11111222,11111222' 
TCOON,ioos:station:TCOON:057:1,2009-03-09T00:00:00Z,28.4460,-96.3961,0.0,4.2,87.0,4.7,'11111222,11111222,11111222' 
TCOON,ioos:station:TCOON:057:1,2009-03-09T01:00:00Z,28.4460,-96.3961,0.0,5.1,81.0,5.5,'11111222,11111222,11111222' 
TCOON,ioos:station:TCOON:057:1,2009-03-09T02:00:00Z,28.4460,-96.3961,0.0,5.6,84.0,6.9,'11111222,11111222,11111222' 
TCOON,ioos:station:TCOON:057:1,2009-03-09T03:00:00Z,28.4460,-96.3961,0.0,5.7,105.0,6.6,'11111222,11111222,11111222' 
TCOON,ioos:station:TCOON:057:1,2009-03-09T04:00:00Z,28.4460,-96.3961,0.0,5.0,97.0,5.5,'11111222,11111222,11111222' 
TCOON,ioos:station:TCOON:057:1,2009-03-09T05:00:00Z,28.4460,-96.3961,0.0,3.9,97.0,4.2,'11111222,11111222,11111222' 
TCOON,ioos:station:TCOON:057:1,2009-03-09T06:00:00Z,28.4460,-96.3961,0.0,3.1,107.0,3.5,'11111222,11111222,11111222' 
TCOON,ioos:station:TCOON:057:1,2009-03-09T07:00:00Z,28.4460,-96.3961,0.0,4.2,142.0,4.8,'11111222,11111222,11111222' 
TCOON,ioos:station:TCOON:057:1,2009-03-09T08:00:00Z,28.4460,-96.3961,0.0,5.7,144.0,6.5,'11111222,11111222,11111222' 
TCOON,ioos:station:TCOON:057:1,2009-03-09T09:00:00Z,28.4460,-96.3961,0.0,7.7,152.0,8.7,'11111222,11111222,11111222' 
TCOON,ioos:station:TCOON:057:1,2009-03-09T10:00:00Z,28.4460,-96.3961,0.0,7.9,152.0,8.8,'11111222,11111222,11111222' 
TCOON,ioos:station:TCOON:057:1,2009-03-09T11:00:00Z,28.4460,-96.3961,0.0,6.8,158.0,7.8,'11111222,11111222,11111222' 
TCOON,ioos:station:TCOON:057:1,2009-03-09T12:00:00Z,28.4460,-96.3961,0.0,6.2,157.0,7.1,'11111222,11111222,11111222' 